[[{"header":{"parameterUnit":"m.s-1","parameterCategory":1,"la1":30.2991,"la2":30.254,"lo1":-89.0895,"lo2":-89.0444,"dy":0.0017,"dx":0.0017,"nx":28,"ny":28,"refTime":"2024-04-23T21:00:00:Z","depth":0,"parameterNumber":2,"parameterNumberName":"U-component_of_WINDS"},"data":[0,0,0,0,0,0,0,0,0,0,0,0,0,0,0,0,0,0,0,0,0,0,0,0,0,0,0,0,0,0,0,0,0,0,0,0,0,0,0,0,0,0,0,0,0,0,0,0,0,0,0,0,0,0,0,0,0,0,-0.3272,-0.3272,0,-0.3323,-0.3324,-0.3324,-0.3338,-0.3338,-0.3337,-0.3337,-0.3393,-0.3394,-0.3396,0,0,0,0,0,0,0,0,0,0,0,0,0,-0.3189,-0.319,-0.3272,-0.3272,-0.3273,-0.3323,-0.3324,-0.3324,-0.3338,-0.3338,-0.3337,-0.3337,-0.3392,-0.3394,-0.3396,0,0,0,0,0,0,0,0,0,0,0,0,0,-0.3231,-0.319,-0.3271,-0.3286,-0.3287,-0.3323,-0.3324,-0.3325,-0.3338,-0.3338,-0.3337,-0.3337,-0.3391,-0.3394,-0.3397,-0.3422,0,0,-0.3405,-0.3406,0,0,0,0,0,0,0,0,-0.3228,-0.3234,-0.3283,-0.3285,-0.3287,-0.3324,-0.3315,-0.3357,-0.3338,-0.3319,-0.3337,-0.3337,-0.337,-0.3375,-0.3385,-0.3425,-0.3427,-0.3405,-0.3406,-0.3408,-0.3408,0,0,0,0,0,0,0,-0.3225,-0.3232,-0.3292,-0.3284,-0.3286,-0.3291,-0.3296,-0.3323,-0.3347,-0.3321,-0.3322,-0.3328,-0.3371,-0.3383,-0.3387,-0.3428,-0.3405,-0.3407,-0.3409,-0.341,-0.3493,-0.3494,0,0,0,0,0,0,-0.322,-0.3229,-0.329,-0.3294,-0.3256,-0.3292,-0.3299,-0.3312,-0.3346,-0.3351,-0.3328,-0.3328,-0.3378,-0.3384,-0.3389,-0.3422,-0.3408,-0.341,-0.3412,-0.3492,-0.3493,-0.3494,0,0,0,0,0,0,-0.3218,-0.3225,-0.3288,-0.3262,-0.327,-0.3294,-0.331,-0.3314,-0.3325,-0.3352,-0.3356,-0.3335,-0.3378,-0.3385,-0.3414,-0.3424,-0.3411,-0.3414,-0.3492,-0.3493,-0.3494,-0.3489,0,0,0,0,0,0,-0.3215,-0.3224,-0.3233,-0.3262,-0.3271,-0.3312,-0.331,-0.3315,-0.3329,-0.333,-0.336,-0.3364,-0.3378,-0.341,-0.3417,-0.3428,-0.3416,-0.3491,-0.3492,-0.3493,-0.3488,-0.349,-0.3491,0,0,0,0,0,-0.3212,-0.323,-0.3234,-0.3241,-0.3283,-0.3312,-0.3318,-0.3333,-0.333,-0.334,-0.3358,-0.3363,-0.3422,-0.3413,-0.342,-0.3433,-0.349,-0.3492,-0.3493,-0.3488,-0.3489,-0.3491,0,0,0,0,0,0,-0.3203,-0.3234,-0.3238,-0.3266,-0.3286,-0.3314,-0.3328,-0.3334,-0.3356,-0.3356,-0.3374,-0.3381,-0.3409,-0.3424,-0.3413,-0.346,-0.3456,-0.3459,-0.345,-0.3451,-0.3452,-0.3449,-0.3418,0,0,0,0,0,-0.3204,-0.3224,-0.3251,-0.3272,-0.3282,-0.3303,-0.3316,-0.3326,-0.3348,-0.3357,-0.3377,-0.3399,-0.3422,-0.3438,-0.3461,-0.349,-0.3498,-0.3502,-0.3504,-0.3504,-0.3507,-0.3525,-0.3528,-0.3499,-0.3498,-0.3498,0,0,-0.3207,-0.3226,-0.3238,-0.3271,-0.3288,-0.3309,-0.331,-0.3333,-0.3349,-0.3361,-0.339,-0.3405,-0.3431,-0.346,-0.3475,-0.3473,-0.3517,-0.3506,-0.3507,-0.3509,-0.3527,-0.353,-0.3532,-0.3499,-0.3499,-0.3499,0,0,-0.3223,-0.3239,-0.3259,-0.3276,-0.3302,-0.3316,-0.332,-0.3348,-0.3358,-0.3387,-0.3397,-0.3417,-0.3457,-0.3475,-0.349,-0.3514,-0.3521,-0.3521,-0.3528,-0.3545,-0.3548,-0.355,-0.356,-0.3563,-0.3523,-0.3523,-0.3523,0,-0.3223,-0.3255,-0.3269,-0.3291,-0.3306,-0.3317,-0.3339,-0.3355,-0.3387,-0.3398,-0.3396,-0.3447,-0.3465,-0.35,-0.3506,-0.3517,-0.3524,-0.3518,-0.3546,-0.3548,-0.3551,-0.356,-0.3564,-0.3523,-0.3523,-0.3523,-0.3523,0,-0.3255,-0.3277,-0.329,-0.332,-0.3337,-0.3359,-0.3378,-0.3393,-0.3401,-0.3416,-0.3446,-0.3468,-0.3496,-0.3505,-0.3514,-0.3542,-0.3541,-0.3542,-0.3539,-0.3553,-0.3563,-0.3566,-0.3523,-0.3523,-0.3523,-0.3523,0,0,-0.3267,-0.3305,-0.331,-0.3324,-0.3353,-0.3371,-0.3394,-0.3421,-0.3434,-0.3456,-0.3476,-0.351,-0.3512,-0.3528,-0.3539,-0.3555,-0.3574,-0.3555,-0.3555,-0.3558,-0.3608,-0.3607,-0.3611,-0.3578,-0.3579,-0.358,-0.3606,0,-0.3287,-0.3328,-0.3342,-0.3376,-0.3397,-0.3408,-0.3428,-0.3449,-0.3463,-0.3484,-0.35,-0.3524,-0.3524,-0.3534,-0.355,-0.3568,-0.3584,-0.3566,-0.3599,-0.36,-0.3593,-0.3616,-0.3615,-0.3639,-0.361,-0.361,-0.3611,0,-0.3317,-0.3338,-0.3374,-0.3402,-0.3411,-0.3429,-0.3455,-0.3475,-0.3499,-0.3509,-0.3527,-0.3537,-0.3563,-0.3558,-0.3595,-0.3582,-0.3596,-0.3608,-0.3609,-0.3613,-0.3607,-0.3622,-0.3647,-0.3651,-0.3616,-0.3616,-0.3616,0,-0.3323,-0.3362,-0.3388,-0.34,-0.3432,-0.3445,-0.3459,-0.3483,-0.3498,-0.3522,-0.3533,-0.3559,-0.3574,-0.3594,-0.3612,-0.3606,-0.3648,-0.3643,-0.3658,-0.3657,-0.3667,-0.3666,-0.3695,-0.3674,-0.3674,-0.3674,-0.3674,0,-0.3346,-0.3367,-0.3392,-0.3408,-0.3434,-0.345,-0.3475,-0.349,-0.3511,-0.3532,-0.3543,-0.3562,-0.3584,-0.3606,-0.362,-0.3649,-0.3656,-0.3665,-0.3669,-0.3665,-0.3664,-0.3675,-0.3674,-0.3675,-0.3674,-0.3674,-0.3674,0,-0.3358,-0.3375,-0.3405,-0.3433,-0.344,-0.3458,-0.3482,-0.35,-0.3514,-0.3541,-0.3548,-0.3571,-0.3599,-0.3618,-0.3653,-0.3662,-0.3694,-0.3697,-0.3686,-0.3688,-0.3702,-0.3701,-0.374,-0.3747,-0.372,-0.372,-0.372,0,-0.3371,-0.3388,-0.3418,-0.3432,-0.3446,-0.3469,-0.3485,-0.3502,-0.3519,-0.3548,-0.3562,-0.359,-0.3613,-0.3656,-0.3678,-0.3705,-0.3709,-0.3721,-0.3714,-0.371,-0.3711,-0.3711,-0.3713,-0.3723,-0.3723,-0.3723,-0.3723,0,-0.3394,-0.3401,-0.3423,-0.3449,-0.3468,-0.3489,-0.351,-0.3521,-0.3542,-0.3561,-0.3588,-0.3606,-0.3642,-0.367,-0.37,-0.3716,-0.3724,-0.3726,-0.3731,-0.3727,-0.3721,-0.3726,-0.369,-0.3725,-0.3725,-0.3725,-0.3725,-0.3724,-0.3408,-0.3424,-0.3448,-0.3472,-0.349,-0.351,-0.3528,-0.3544,-0.3567,-0.3598,-0.3606,-0.3636,-0.3661,-0.3701,-0.3718,-0.3742,-0.3741,-0.3748,-0.375,-0.3752,-0.3752,-0.3716,-0.3747,-0.3747,-0.3747,-0.3747,-0.3747,0,-0.3432,-0.3448,-0.347,-0.35,-0.352,-0.3524,-0.3548,-0.3565,-0.359,-0.3612,-0.3635,-0.3667,-0.3695,-0.3718,-0.3747,-0.3762,-0.3766,-0.3769,-0.3769,-0.3773,-0.3751,-0.3744,-0.3765,-0.3765,-0.3765,-0.3765,-0.3765,-0.3765,-0.3447,-0.3475,-0.3486,-0.3523,-0.3539,-0.3567,-0.3581,-0.36,-0.3618,-0.3653,-0.3676,-0.369,-0.3714,-0.3744,-0.377,-0.3777,-0.3787,-0.3789,-0.3797,-0.3776,-0.3774,-0.3772,-0.3766,-0.3791,-0.3791,-0.3817,-0.3817,-0.3817]},{"header":{"parameterUnit":"m.s-1","parameterCategory":1,"la1":30.2991,"la2":30.254,"lo1":-89.0895,"lo2":-89.0444,"dy":0.0017,"dx":0.0017,"nx":28,"ny":28,"refTime":"2024-04-23T21:00:00:Z","depth":0,"parameterNumber":3,"parameterNumberName":"V-component_of_WINDS"},"data":[0,0,0,0,0,0,0,0,0,0,0,0,0,0,0,0,0,0,0,0,0,0,0,0,0,0,0,0,0,0,0,0,0,0,0,0,0,0,0,0,0,0,0,0,0,0,0,0,0,0,0,0,0,0,0,0,0,0,4.0634,4.0636,0,4.0748,4.0749,4.075,4.0721,4.0719,4.0717,4.0715,4.0825,4.083,4.0835,0,0,0,0,0,0,0,0,0,0,0,0,0,4.0385,4.039,4.0634,4.0636,4.0637,4.0748,4.0749,4.0751,4.0722,4.0719,4.0716,4.0714,4.0824,4.083,4.0836,0,0,0,0,0,0,0,0,0,0,0,0,0,4.0495,4.0392,4.0634,4.0636,4.0637,4.0747,4.0749,4.0751,4.0722,4.0719,4.0715,4.0712,4.0822,4.0829,4.0837,4.095,0,0,4.086,4.0863,0,0,0,0,0,0,0,0,4.0489,4.0505,4.0634,4.0636,4.0638,4.0717,4.0702,4.0818,4.0723,4.069,4.0714,4.0711,4.0792,4.0802,4.083,4.0955,4.096,4.086,4.0865,4.0868,4.087,0,0,0,0,0,0,0,4.0482,4.05,4.0679,4.0636,4.0638,4.0629,4.0641,4.0724,4.0758,4.0692,4.0691,4.0705,4.0792,4.0823,4.0832,4.0962,4.086,4.0867,4.0871,4.0874,4.1182,4.1185,0,0,0,0,0,0,4.0473,4.0493,4.0675,4.0682,4.0554,4.0636,4.065,4.0695,4.0757,4.0763,4.0707,4.0703,4.0812,4.0824,4.0836,4.097,4.0868,4.0875,4.088,4.1178,4.1182,4.1186,0,0,0,0,0,0,4.0468,4.049,4.0671,4.0588,4.061,4.0644,4.0695,4.0699,4.073,4.0768,4.0774,4.0733,4.0809,4.0826,4.0921,4.0974,4.0879,4.0885,4.1174,4.1179,4.1184,4.1241,0,0,0,0,0,0,4.0461,4.0488,4.0534,4.0589,4.0614,4.0757,4.0699,4.0704,4.0743,4.0739,4.0794,4.08,4.0808,4.091,4.0929,4.0982,4.0891,4.1169,4.1176,4.1183,4.1234,4.1247,4.1259,0,0,0,0,0,4.0453,4.0545,4.0536,4.0558,4.0672,4.076,4.0774,4.0783,4.0748,4.0792,4.0816,4.0798,4.0966,4.092,4.0941,4.0997,4.1166,4.1174,4.1182,4.1229,4.1245,4.1258,0,0,0,0,0,0,4.0493,4.0552,4.0543,4.0656,4.0703,4.0755,4.0811,4.08,4.0857,4.085,4.0857,4.087,4.0967,4.0992,4.0941,4.1109,4.106,4.1073,4.1089,4.1104,4.1116,4.1107,4.0898,0,0,0,0,0,4.0516,4.0584,4.0631,4.0726,4.075,4.0777,4.0815,4.0818,4.0866,4.0886,4.0917,4.0963,4.1026,4.1067,4.1127,4.1239,4.1248,4.1287,4.1299,4.1309,4.1319,4.1376,4.1393,4.1213,4.1213,4.1213,0,0,4.0562,4.0603,4.0645,4.0735,4.0772,4.084,4.0794,4.0868,4.0917,4.0896,4.0988,4.1013,4.1065,4.1168,4.1215,4.1192,4.1371,4.132,4.1327,4.1332,4.1386,4.1403,4.1418,4.1219,4.1218,4.1217,0,0,4.0681,4.072,4.0802,4.084,4.0896,4.0913,4.0933,4.0986,4.1001,4.1094,4.1079,4.1137,4.1246,4.1282,4.1315,4.1446,4.1429,4.1465,4.1527,4.1583,4.1597,4.161,4.1653,4.1669,4.1475,4.1475,4.1476,0,4.0731,4.0834,4.0845,4.092,4.0959,4.0944,4.1025,4.1061,4.1134,4.1159,4.1133,4.1267,4.1301,4.1411,4.1443,4.1471,4.1491,4.1457,4.1595,4.1607,4.1619,4.166,4.1677,4.1479,4.1479,4.1478,4.1478,0,4.0891,4.0963,4.1022,4.1093,4.1139,4.1217,4.1236,4.1281,4.128,4.1298,4.1391,4.1431,4.1498,4.1525,4.1524,4.1634,4.1617,4.1593,4.1544,4.164,4.1678,4.1694,4.1484,4.1483,4.1482,4.1481,0,0,4.1038,4.1113,4.1135,4.1165,4.1226,4.1281,4.1357,4.1423,4.1459,4.151,4.1571,4.1663,4.164,4.1677,4.168,4.173,4.1826,4.1699,4.17,4.1718,4.1945,4.1961,4.1979,4.1817,4.182,4.1823,4.194,0,4.1159,4.1294,4.1305,4.1426,4.149,4.1477,4.1542,4.1585,4.1605,4.166,4.1681,4.1744,4.1711,4.1733,4.1782,4.1804,4.1871,4.1796,4.1871,4.1873,4.1855,4.2,4.2017,4.2126,4.1955,4.1958,4.196,0,4.1319,4.1374,4.1501,4.1551,4.1578,4.1637,4.1697,4.1752,4.1799,4.1809,4.185,4.1846,4.1921,4.1871,4.1972,4.1921,4.1952,4.1968,4.1972,4.1977,4.192,4.2005,4.2161,4.2176,4.1984,4.1982,4.198,0,4.1408,4.1515,4.1604,4.1631,4.1692,4.1733,4.176,4.1804,4.1842,4.1894,4.1918,4.1979,4.201,4.2056,4.2067,4.203,4.2167,4.2119,4.2174,4.2174,4.2201,4.2199,4.2361,4.2227,4.2227,4.2226,4.2226,0,4.1541,4.1618,4.1645,4.1699,4.1785,4.1796,4.1879,4.1903,4.1942,4.1999,4.1992,4.2044,4.2058,4.2112,4.2122,4.2202,4.2217,4.2225,4.2226,4.2224,4.2223,4.2242,4.2234,4.2231,4.223,4.2229,4.2228,0,4.1654,4.1676,4.1772,4.1821,4.1835,4.1896,4.1937,4.1987,4.2006,4.2077,4.2095,4.2122,4.2186,4.2203,4.2279,4.2285,4.2379,4.2374,4.2363,4.2362,4.2415,4.2409,4.2593,4.2616,4.247,4.2471,4.2473,0,4.1736,4.1795,4.1851,4.1889,4.1918,4.198,4.2018,4.2031,4.2071,4.2128,4.2172,4.2235,4.2286,4.2388,4.2413,4.2471,4.2465,4.2526,4.2474,4.2469,4.2462,4.2457,4.2461,4.2535,4.2536,4.2538,4.2539,0,4.1877,4.1885,4.1942,4.2003,4.2049,4.2097,4.2143,4.2174,4.2192,4.2238,4.2304,4.2343,4.2421,4.2482,4.254,4.2565,4.2554,4.2556,4.2571,4.2568,4.2558,4.256,4.2386,4.2551,4.2549,4.2548,4.2548,4.2547,4.1975,4.2026,4.2073,4.2136,4.2172,4.2214,4.2263,4.2288,4.2343,4.2408,4.2412,4.2482,4.2525,4.2602,4.263,4.2683,4.2665,4.2688,4.2693,4.2698,4.2701,4.2552,4.2694,4.2694,4.2694,4.2694,4.2693,0,4.2113,4.2142,4.22,4.2265,4.2313,4.2301,4.2351,4.2392,4.2454,4.2496,4.2546,4.262,4.268,4.271,4.2768,4.2805,4.2801,4.2819,4.2815,4.282,4.2716,4.2695,4.2821,4.2821,4.2821,4.2821,4.2821,4.2821,4.219,4.2275,4.2287,4.2388,4.2416,4.2486,4.2515,4.2553,4.2586,4.2669,4.2719,4.2739,4.2775,4.2835,4.2888,4.2895,4.2915,4.2935,4.294,4.2841,4.2828,4.2815,4.2796,4.2941,4.2941,4.3039,4.304,4.3041]}]]